Location: Usti nad Labem
(50.6670°N, 14.0330°E)
Time: 21:19:15
(UTC+01:00)

Envisat - Pass Details

Date: 04 December 2020
Orbit: 764 x 766 km, 98.1° (Epoch: 15 January)

Event Time Altitude Azimuth Distance (km) Brightness Sun altitude
Rises 17:24:23 0° 180° (S) 3,221 6.5 -12.6°
Reaches altitude 10° 17:26:45 10° 185° (S) 2,299 5.8 -12.9°
Maximum altitude 17:31:40 50° 261° (W) 977 4.0 -13.7°
Drops below altitude 10° 17:36:37 10° 337° (NNW) 2,316 5.6 -14.4°
Sets 17:39:01 0° 342° (NNW) 3,247 6.3 -14.8°
